Location: Unspecified
(64.9000°N, 0.0000°E)
Time: 05:13:17
(UTC+00:00)

Vanguard 1 - Pass Details

Date: 25 June 2019
Orbit: 653 x 3830 km, 34.3° (Epoch: 22 July)

Event Time Altitude Azimuth Distance (km) Brightness Sun altitude
Rises 04:31:34 0° 237° (WSW) 6,928 13.7 12.1°
Reaches altitude 10° 04:41:14 10° 211° (SSW) 5,003 13.2 13.0°
Maximum altitude 04:44:43 11° 196° (SSW) 4,509 13.1 13.3°
Drops below altitude 10° 04:47:48 10° 180° (S) 4,268 13.1 13.6°
Sets 04:53:51 0° 149° (SSE) 4,521 13.5 14.2°
